Change the Weather History Date:

Tuesday, October 30, 2012

  Actual Average Record
Temperature  
Mean Temperature 44 °F -  
Max Temperature 59 °F 55 °F 87 °F (2001)
Min Temperature 30 °F 40 °F 30 °F (2012)
Degree Days  
Heating Degree Days 20    
Moisture  
Dew Point 35 °F    
Average Humidity 77    
Maximum Humidity 100    
Minimum Humidity 39    
Precipitation  
Precipitation 0.00 in - - ()
Sea Level Pressure  
Sea Level Pressure 29.67 in    
Wind  
Wind Speed 3 mph ()    
Max Wind Speed 7 mph    
Max Gust Speed -    
Visibility 6.2 miles    
Events      
Averages and records for this station are not official NWS values.
T = Trace of Precipitation, MM = Missing Value Source: Averaged Metar Reports

Daily Weather History Graph

Daily Weather History Graph

Search for Another Location

Airport or City:

Trip Planner

Search our weather history database for the weather conditions in past years. The results will help you decide how hot, cold, wet, or windy it might be!

Date:

Astronomy

Oct. 30, 2012 Rise Set
Actual Time 7:34 AM CET 5:55 PM CET
Civil Twilight 7:05 AM CET 6:24 PM CET
Nautical Twilight 6:31 AM CET 6:58 PM CET
Astronomical Twilight 5:58 AM CET 7:31 PM CET
Moon 6:13 PM CET (10/30) 8:09 AM CET (10/30)
Length of Visible Light 11h 19m
Length of Day
10h 20m
Full, 100% of the Moon is Illuminated
Oct 30
Full
Nov 7
Last Quarter
Nov 13
New
Nov 20
First Quarter
Nov 28
Full

Hourly Weather History & Observations

Time (CET) Temp. Windchill Dew Point Humidity Pressure Visibility Wind Dir Wind Speed Gust Speed Precip Events Conditions
12:00 AM 37.4 °F 34.9 °F 32.0 °F 81% 29.80 in 6.2 mi SE 3.5 mph - N/A   Unknown
12:30 AM 35.6 °F 32.8 °F 32.0 °F 87% 29.80 in 6.2 mi SSE 3.5 mph - N/A   Unknown
1:00 AM 35.6 °F 31.7 °F 32.0 °F 87% 29.80 in 6.2 mi SE 4.6 mph - N/A   Unknown
1:30 AM 33.8 °F 30.8 °F 30.2 °F 87% 29.80 in 6.2 mi SE 3.5 mph - N/A   Unknown
2:00 AM 35.6 °F 31.7 °F 32.0 °F 87% 29.77 in 6.2 mi SE 4.6 mph - N/A   Unknown
2:30 AM 37.4 °F 33.8 °F 32.0 °F 81% 29.77 in 6.2 mi SE 4.6 mph - N/A   Unknown
3:00 AM 35.6 °F 32.8 °F 32.0 °F 87% 29.77 in 6.2 mi South 3.5 mph - N/A   Unknown
3:30 AM 33.8 °F - 30.2 °F 87% 29.77 in 6.2 mi Calm Calm - N/A   Unknown
4:00 AM 33.8 °F 29.6 °F 32.0 °F 93% 29.74 in 6.2 mi SE 4.6 mph - N/A   Unknown
4:30 AM 33.8 °F - 30.2 °F 87% 29.74 in 6.2 mi SSE 2.3 mph - N/A   Unknown
5:00 AM 32.0 °F - 30.2 °F 93% 29.74 in 6.2 mi NE 1.2 mph - N/A   Unknown
5:30 AM 32.0 °F - 30.2 °F 93% 29.74 in 6.2 mi East 2.3 mph - N/A   Unknown
6:00 AM 32.0 °F - 30.2 °F 93% 29.71 in - SSE 1.2 mph - N/A   Clear
6:30 AM 32.0 °F 28.7 °F 30.2 °F 93% 29.71 in - SSE 3.5 mph - N/A   Clear
7:00 AM 32.0 °F 28.7 °F 30.2 °F 93% 29.71 in - SE 3.5 mph - N/A   Clear
7:30 AM 30.2 °F - 30.2 °F 100% 29.71 in - Calm Calm - N/A   Clear
8:00 AM 32.0 °F - 32.0 °F 100% 29.71 in - Variable 1.2 mph - N/A   Clear
8:30 AM 35.6 °F - 33.8 °F 93% 29.71 in - Variable 2.3 mph - N/A   Clear
9:00 AM 35.6 °F - 33.8 °F 93% 29.71 in - Variable 2.3 mph - N/A   Clear
9:30 AM 39.2 °F 37.0 °F 35.6 °F 87% 29.71 in - SE 3.5 mph - N/A   Clear
10:00 AM 41.0 °F 39.0 °F 35.6 °F 81% 29.71 in - SE 3.5 mph - N/A   Clear
10:30 AM 44.6 °F 43.1 °F 37.4 °F 76% 29.68 in - ESE 3.5 mph - N/A   Clear
11:00 AM 46.4 °F - 37.4 °F 71% 29.68 in - Variable 2.3 mph - N/A   Clear
11:30 AM 48.2 °F - 39.2 °F 71% 29.68 in - Calm Calm - N/A   Clear
12:00 PM 50.0 °F - 39.2 °F 66% 29.68 in - Calm Calm - N/A   Clear
12:30 PM 53.6 °F - 35.6 °F 51% 29.65 in - Variable 1.2 mph - N/A   Clear
1:00 PM 55.4 °F - 37.4 °F 51% 29.65 in - Variable 1.2 mph - N/A   Clear
1:30 PM 57.2 °F - 37.4 °F 48% 29.65 in - Variable 2.3 mph - N/A   Clear
2:00 PM 59.0 °F - 37.4 °F 45% 29.62 in - Variable 3.5 mph - N/A   Clear
2:30 PM 59.0 °F - 39.2 °F 48% 29.62 in - NE 4.6 mph - N/A   Clear
3:00 PM 59.0 °F - 33.8 °F 39% 29.62 in - NE 4.6 mph - N/A   Clear
3:30 PM 59.0 °F - 37.4 °F 45% 29.62 in - NE 4.6 mph - N/A   Clear
4:00 PM 59.0 °F - 35.6 °F 42% 29.62 in - NE 5.8 mph - N/A   Clear
4:30 PM 57.2 °F - 37.4 °F 48% 29.59 in - ENE 6.9 mph - N/A   Clear
5:00 PM 55.4 °F - 37.4 °F 51% 29.59 in - ENE 6.9 mph - N/A   Clear
5:30 PM 53.6 °F - 37.4 °F 54% 29.59 in - ENE 5.8 mph - N/A   Clear
6:00 PM 51.8 °F - 37.4 °F 58% 29.59 in - East 4.6 mph - N/A   Clear
6:30 PM 48.2 °F - 39.2 °F 71% 29.59 in - Variable 2.3 mph - N/A   Clear
7:00 PM 46.4 °F - 37.4 °F 71% 29.62 in - Variable 1.2 mph - N/A   Clear
7:30 PM 44.6 °F - 39.2 °F 81% 29.59 in - East 1.2 mph - N/A   Clear
8:00 PM 42.8 °F - 37.4 °F 81% 29.59 in - ESE 1.2 mph - N/A   Clear
8:30 PM 42.8 °F - 37.4 °F 81% 29.59 in - South 2.3 mph - N/A   Clear
9:00 PM 41.0 °F - 37.4 °F 87% 29.59 in - Variable 1.2 mph - N/A   Clear
9:30 PM 41.0 °F - 37.4 °F 87% 29.59 in 6.2 mi NE 2.3 mph - N/A   Unknown
10:00 PM 41.0 °F - 39.2 °F 93% 29.59 in 6.2 mi Calm Calm - N/A   Unknown
10:30 PM 41.0 °F 39.0 °F 39.2 °F 93% 29.56 in 6.2 mi SSE 3.5 mph - N/A   Unknown
11:00 PM 41.0 °F - 39.2 °F 93% 29.56 in 6.2 mi ENE 1.2 mph - N/A   Unknown
11:30 PM 39.2 °F - 39.2 °F 100% 29.56 in 6.2 mi Calm Calm - N/A   Unknown